Ithaca, NY

7:52 AM EDT on July 28, 2017 (GMT -0400)
Tompkins County

Weather History for KITH - August, 2014

Change the Weather History Date:

Wednesday, August 27, 2014

  Actual Average Record
Temperature  
Mean Temperature 68 °F -  
Max Temperature 77 °F 79 °F 95 °F (1948)
Min Temperature 57 °F 55 °F 34 °F (1969)
Cooling Degree Days 3    
Growing Degree Days 18 (Base 50)    
Moisture  
Dew Point 63 °F    
Average Humidity 78    
Maximum Humidity 94    
Minimum Humidity 65    
Precipitation  
Precipitation 0.00 in - - ()
Sea Level Pressure  
Sea Level Pressure 30.03 in    
Wind  
Wind Speed 4 mph (NW)    
Max Wind Speed 9 mph    
Max Gust Speed -    
Visibility 9 miles    
Events      
Averages and records for this station are not official NWS values.
T = Trace of Precipitation, MM = Missing Value Source: NWS Daily Summary

Daily Weather History Graph

Daily Weather History Graph

Search for Another Location

Airport or City:

Trip Planner

Search our weather history database for the weather conditions in past years. The results will help you decide how hot, cold, wet, or windy it might be!

Date:

Astronomy

Aug. 27, 2014 Rise Set
Actual Time 6:25 AM EDT 7:48 PM EDT
Civil Twilight 5:56 AM EDT 8:17 PM EDT
Nautical Twilight 5:20 AM EDT 8:52 PM EDT
Astronomical Twilight 4:43 AM EDT 9:29 PM EDT
Moon 8:22 AM EDT (8/27) 8:35 PM EDT (8/27)
Length of Visible Light 14h 21m
Length of Day
13h 22m
Waxing Crescent, 4% of the Moon is Illuminated
Aug 27
Waxing Crescent
Sep 2
First Quarter
Sep 8
Full
Sep 15
Last Quarter
Sep 24
New

Hourly Weather History & Observations

Time (EDT) Temp. Dew Point Humidity Pressure Visibility Wind Dir Wind Speed Gust Speed Precip Events Conditions
12:56 AM 70.0 °F 57.9 °F 65% 30.05 in 10.0 mi South 5.8 mph - N/A   Clear
1:56 AM 70.0 °F 59.0 °F 68% 30.04 in 10.0 mi SSE 5.8 mph - N/A   Mostly Cloudy
2:56 AM 68.9 °F 59.9 °F 73% 30.03 in 10.0 mi SSE 3.5 mph - N/A   Overcast
3:56 AM 70.9 °F 59.9 °F 68% 30.03 in 10.0 mi South 4.6 mph - N/A   Overcast
4:56 AM 68.9 °F 61.0 °F 76% 30.03 in 10.0 mi Calm Calm - N/A   Overcast
5:56 AM 68.9 °F 63.0 °F 81% 30.04 in 10.0 mi Calm Calm - N/A   Overcast
6:19 AM 69.8 °F 62.6 °F 78% 30.05 in 10.0 mi Variable 3.5 mph - N/A   Overcast
6:22 AM 69.8 °F 62.6 °F 78% 30.06 in 10.0 mi WSW 3.5 mph - N/A   Overcast
6:43 AM 69.8 °F 62.6 °F 78% 30.05 in 10.0 mi Calm Calm - N/A   Mostly Cloudy
6:56 AM 68.9 °F 63.0 °F 81% 30.04 in 10.0 mi Calm Calm - N/A   Mostly Cloudy
7:56 AM 72.9 °F 63.9 °F 73% 30.04 in 10.0 mi SW 3.5 mph - N/A   Mostly Cloudy
8:03 AM 73.4 °F 64.4 °F 73% 30.06 in 10.0 mi SW 4.6 mph - N/A   Mostly Cloudy
8:13 AM 71.6 °F 64.4 °F 78% 30.06 in 10.0 mi Calm Calm - N/A   Overcast
8:23 AM 71.6 °F 64.4 °F 78% 30.06 in 10.0 mi Calm Calm - N/A   Overcast
8:56 AM 72.9 °F 64.9 °F 76% 30.05 in 10.0 mi SW 4.6 mph - N/A   Overcast
9:56 AM 73.9 °F 65.8 °F 76% 30.04 in 10.0 mi Calm Calm - N/A   Overcast
10:56 AM 72.9 °F 66.9 °F 82% 30.05 in 10.0 mi WNW 5.8 mph - N/A   Overcast
11:31 AM 71.6 °F 68.0 °F 88% 30.06 in 6.0 mi NW 5.8 mph - N/A   Overcast
11:46 AM 71.6 °F 69.8 °F 94% 30.06 in 5.0 mi North 5.8 mph - N/A   Overcast
11:56 AM 70.9 °F 68.0 °F 91% 30.04 in 4.0 mi NNW 3.5 mph - N/A   Overcast
12:56 PM 72.0 °F 68.0 °F 87% 30.03 in 4.0 mi North 4.6 mph - N/A   Overcast
1:56 PM 73.9 °F 68.0 °F 82% 30.02 in 8.0 mi North 4.6 mph - N/A   Overcast
2:56 PM 74.8 °F 66.9 °F 76% 30.00 in 9.0 mi NW 8.1 mph - N/A   Mostly Cloudy
3:56 PM 74.8 °F 66.9 °F 76% 29.99 in 10.0 mi North 9.2 mph - N/A   Mostly Cloudy
4:56 PM 77.0 °F 65.8 °F 68% 29.98 in 10.0 mi NNW 9.2 mph - N/A   Scattered Clouds
5:56 PM 75.9 °F 63.9 °F 66% 29.99 in 10.0 mi North 9.2 mph - N/A   Mostly Cloudy
6:56 PM 72.0 °F 63.9 °F 76% 29.99 in 10.0 mi North 8.1 mph - N/A   Mostly Cloudy
7:56 PM 68.0 °F 59.9 °F 75% 30.00 in 10.0 mi North 5.8 mph - N/A   Mostly Cloudy
8:56 PM 63.9 °F 55.9 °F 75% 30.02 in 10.0 mi North 3.5 mph - N/A   Partly Cloudy
9:56 PM 61.9 °F 55.9 °F 81% 30.03 in 10.0 mi North 3.5 mph - N/A   Clear
10:56 PM 59.9 °F 56.8 °F 90% 30.04 in 10.0 mi NNW 3.5 mph - N/A   Clear
11:56 PM 57.9 °F 55.9 °F 93% 30.05 in 10.0 mi NW 4.6 mph - N/A   Clear